Theta_e
342 342 344 345 346 347 346 346 346 347 346 341 344 341 341 337 345 349 343 351 362 364 361 360 361 361 361 361 362 362 361 361 362 362 361 360 361 362 360 359 357 356 354
343 343 344 346 346 346 346 346 344 345 345 338 340 344 344 341 345 347 346 345 362 362 363 361 361 363 363 362 361 361 362 360 359 360 360 361 361 360 358 357 356 355 353
341 341 342 343 346 344 344 343 345 345 344 343 337 340 342 346 345 347 348 347 354 363 363 363 364 366 365 363 362 362 361 361 360 361 362 360 359 357 356 355 354 353 352
341 341 340 342 341 338 342 345 344 343 343 341 339 341 343 344 341 342 347 351 351 354 362 363 364 366 364 363 362 361 361 361 358 358 359 358 357 355 354 354 354 352 350
343 340 335 337 337 335 342 343 341 341 339 338 342 339 336 337 341 340 341 345 351 352 353 361 365 365 364 362 361 361 360 360 359 358 357 356 354 353 353 354 353 353 351
344 339 338 338 338 336 343 333 334 339 344 339 343 336 333 334 339 338 336 345 349 353 351 352 358 359 364 363 361 360 359 357 357 356 355 354 353 352 353 352 351 351 352
343 340 336 338 338 336 343 343 338 343 339 338 336 335 337 334 335 333 338 342 344 351 351 353 352 355 358 364 363 360 358 357 356 355 354 354 353 352 350 349 351 352 351
337 333 333 336 339 345 346 343 346 343 340 338 336 332 326 326 332 337 336 342 340 344 350 352 352 352 353 355 359 362 359 358 356 355 357 355 353 350 348 349 350 349 350
335 337 337 340 348 348 345 345 346 343 332 336 339 334 325 318 323 331 334 338 337 336 341 345 350 353 352 350 358 361 360 358 358 359 357 354 351 347 345 347 347 348 349
337 345 336 346 348 347 342 343 349 337 331 331 336 340 336 326 323 325 333 336 336 337 336 342 337 348 354 352 355 358 359 356 359 358 356 352 348 346 344 345 345 345 346
346 349 348 348 347 349 346 347 348 346 343 336 336 330 331 331 332 332 328 331 337 338 340 340 342 344 350 352 350 352 357 356 356 357 354 350 347 345 343 342 343 342 342
347 348 349 348 349 349 348 346 348 348 349 344 339 334 334 336 334 330 327 326 330 336 340 340 340 344 351 352 354 353 356 354 353 352 350 349 346 343 340 340 340 340 339
344 346 348 347 348 350 350 346 347 349 346 347 344 340 341 339 339 336 329 330 332 334 337 342 339 343 353 348 350 354 355 351 349 345 345 345 344 342 338 336 336 335 334
345 345 349 348 350 351 350 348 345 346 346 347 347 347 345 345 344 342 338 336 329 331 334 335 341 343 347 348 349 354 348 346 345 342 341 341 340 340 338 336 334 333 332
346 347 348 351 350 351 349 348 348 346 346 344 345 346 346 345 345 341 340 339 332 327 329 336 335 344 349 351 349 349 344 345 343 340 338 337 337 337 336 335 333 330 329
347 352 348 350 352 350 347 346 346 346 345 345 347 343 341 343 345 344 340 339 338 334 329 337 343 345 347 354 350 347 342 343 342 339 337 335 335 335 334 333 331 329 328
345 348 348 348 349 349 349 347 347 346 344 342 344 345 343 342 340 340 344 343 340 339 333 335 343 346 344 346 347 346 342 339 338 338 336 334 333 332 332 331 330 328 327
344 344 346 345 344 345 346 343 343 347 343 342 342 338 339 348 343 344 344 342 342 339 336 331 338 341 344 345 343 340 342 343 338 338 335 333 331 330 329 328 327 326 325
343 343 343 341 338 334 333 344 344 344 345 345 344 340 340 343 342 342 344 341 343 346 340 337 336 340 341 343 342 341 340 340 339 338 334 331 329 328 327 325 323 321 320
344 342 339 342 341 338 335 342 345 343 344 345 346 344 344 343 343 343 342 341 342 341 340 338 338 339 340 341 342 338 339 332 331 333 332 329 328 326 325 323 321 319 316
346 344 340 336 338 345 346 345 346 346 345 343 346 347 347 348 346 344 344 341 342 340 340 338 337 337 337 337 336 338 337 333 329 327 327 322 320 320 321 321 320 318 317
337 340 340 341 342 344 341 342 345 345 345 344 343 343 343 344 344 338 338 338 342 340 339 338 337 337 336 338 340 338 335 335 332 328 320 316 317 316 318 317 318 316 316
336 335 338 344 342 344 337 337 341 344 344 343 343 344 344 351 344 345 340 337 335 336 339 340 338 338 337 339 337 337 335 334 332 326 320 313 316 313 315 315 318 315 314
335 332 336 341 344 341 330 330 336 338 339 343 345 344 343 343 344 343 344 343 340 332 334 341 338 334 330 327 329 333 332 333 328 326 325 313 311 310 312 315 317 315 313
330 329 333 341 340 331 325 326 333 336 338 339 343 344 343 344 333 329 340 339 335 321 322 323 323 323 323 324 325 333 334 333 333 323 320 314 311 310 313 313 314 315 313
337 338 336 333 330 331 324 325 329 336 338 337 337 332 326 334 321 322 336 335 333 324 320 321 322 322 323 323 324 323 321 322 327 319 317 314 312 310 307 311 311 312 312
Wind_Speed
2 1 1 1 1 3 4 4 3 5 5 5 6 5 5 3 3 1 3 10 11 9 8 7 6 5 4 4 4 4 3 3 3 3 4 4 5 8 9 10 9 7 6
3 3 2 1 2 3 4 4 4 2 4 3 7 5 7 4 4 7 4 5 11 8 6 5 6 7 6 6 5 5 4 4 4 4 5 6 9 9 9 8 7 5 4
5 5 2 2 2 4 6 1 2 2 4 5 8 7 5 5 6 1 1 1 5 9 7 6 5 5 7 6 5 5 6 6 6 8 10 10 9 7 7 6 5 5 3
4 5 4 3 2 4 5 2 2 1 3 5 5 5 2 5 7 7 3 2 4 3 5 8 6 5 5 6 6 7 7 8 8 9 10 8 7 5 4 3 5 4 2
7 5 4 3 4 4 4 4 3 1 2 3 2 2 5 4 5 3 4 4 6 4 2 6 9 7 6 5 6 8 8 8 8 8 8 7 6 4 4 5 6 4 4
7 4 4 4 2 3 5 3 4 2 1 2 5 5 2 1 3 2 2 5 4 5 3 4 1 4 8 7 7 7 7 6 6 6 6 6 5 4 6 8 7 6 6
4 3 3 2 1 2 4 5 2 2 5 2 3 1 3 1 2 3 3 4 5 3 5 1 1 1 2 8 8 7 7 6 5 4 4 4 4 5 5 5 7 9 9
0 3 4 3 4 2 4 3 1 0 2 4 3 2 3 5 2 4 3 4 5 4 3 4 6 4 1 1 5 8 8 7 6 5 6 6 5 4 4 5 8 8 8
4 3 5 5 4 4 3 3 2 4 2 2 6 4 2 3 3 4 4 1 4 0 2 4 5 6 6 3 4 7 8 7 5 8 8 6 4 4 5 6 6 6 6
7 7 8 7 5 3 3 2 2 3 4 3 2 3 3 4 2 4 3 3 2 4 5 3 1 1 6 5 6 8 9 8 7 7 7 5 4 4 4 5 4 5 6
11 10 6 6 6 4 2 3 2 3 3 3 3 2 1 1 2 2 4 4 4 3 3 4 3 3 3 6 5 6 11 10 9 8 8 7 5 4 3 3 4 3 4
7 7 7 6 6 4 4 4 4 3 3 3 3 4 3 3 2 2 3 3 3 4 2 3 3 3 2 5 8 10 13 11 10 9 9 7 6 5 4 3 3 3 3
3 6 6 5 4 5 6 5 4 5 4 3 4 3 3 2 3 2 1 3 3 3 3 1 4 4 5 6 7 11 13 12 11 9 9 8 7 5 4 3 3 3 4
7 6 6 6 6 6 6 5 3 4 3 3 4 4 2 2 3 4 4 3 1 2 2 5 3 2 3 5 7 12 5 10 11 10 9 9 8 7 6 5 4 4 5
5 6 7 8 7 6 7 6 4 5 4 3 4 4 3 3 3 3 3 3 4 2 2 3 2 4 4 4 6 6 5 10 10 10 10 9 9 9 7 6 5 5 5
6 6 8 8 8 6 6 6 5 4 4 4 4 5 4 4 4 4 4 3 3 3 1 3 2 3 3 2 6 5 4 6 10 11 10 10 9 8 7 6 6 6 5
6 7 7 9 8 8 7 6 6 6 6 4 3 6 6 4 3 3 2 2 2 2 2 3 1 0 3 3 3 4 4 4 4 10 9 9 9 9 8 7 7 6 6
7 7 7 7 6 6 6 7 7 7 7 6 6 4 6 3 5 2 3 3 4 3 3 4 2 3 5 5 3 5 4 5 6 11 11 11 10 10 10 9 8 7 6
8 8 8 8 8 8 7 7 7 7 7 7 7 6 7 5 4 3 3 3 3 3 3 3 3 1 1 1 2 3 3 2 4 9 10 10 10 8 7 9 9 9 7
9 10 8 9 9 8 8 7 7 7 7 6 7 7 7 7 7 6 5 6 4 4 3 3 3 3 3 3 2 3 2 2 2 4 6 4 6 8 9 9 9 9 8
8 10 8 7 8 8 8 8 8 7 7 6 6 7 7 7 10 8 4 6 5 3 3 3 3 2 2 2 3 2 3 3 2 3 2 2 2 2 4 8 8 10 9
3 3 6 9 10 9 11 13 10 7 7 7 7 7 7 8 8 8 10 10 7 5 4 4 3 4 4 3 3 3 3 3 3 4 3 3 3 3 3 3 9 11 10
0 2 6 9 10 10 13 13 13 6 6 6 7 7 6 6 7 6 6 7 6 9 7 4 5 5 3 1 2 2 3 3 2 3 4 3 4 3 4 4 11 11 9
4 2 6 9 10 5 6 8 9 6 6 7 8 9 8 7 6 5 5 5 1 3 3 2 2 2 1 1 2 0 1 3 3 3 1 3 2 2 1 3 13 12 11
3 6 8 9 5 4 6 6 6 3 5 7 6 3 6 7 4 5 5 5 4 2 5 12 13 10 8 7 4 1 2 2 2 2 2 3 2 3 2 2 3 11 9
2 3 6 6 6 5 1 4 5 3 4 4 3 4 3 5 7 4 5 5 5 5 6 6 4 5 5 6 9 5 1 2 2 2 1 3 2 3 3 1 2 3 4
Wind_Direction
341 265 276 279 283 250 246 255 241 171 237 269 304 330 320 305 288 226 181 239 235 228 217 200 192 187 170 143 121 107 86 78 65 49 71 75 87 89 85 90 88 87 88
81 114 106 58 356 311 272 257 229 215 222 207 273 276 272 278 261 210 194 215 213 218 214 199 181 167 151 130 116 111 93 75 80 100 101 111 105 98 94 89 89 88 86
133 140 121 66 2 4 326 279 216 237 191 209 243 257 276 301 327 67 130 202 302 210 199 198 188 170 141 124 107 94 88 88 101 116 110 100 103 104 103 105 100 97 90
182 146 150 145 12 25 327 297 173 303 298 196 212 35 243 88 83 60 68 161 146 290 227 180 172 151 129 118 103 96 92 91 95 101 102 107 107 102 97 121 134 114 111
215 161 145 137 51 8 325 307 107 162 346 330 27 96 57 58 71 57 90 61 164 139 324 204 165 158 143 126 109 108 102 103 103 103 102 100 90 83 56 40 44 52 11
209 122 115 114 80 15 337 328 29 358 19 46 84 82 61 130 155 162 53 75 77 122 98 310 197 166 151 147 130 125 116 111 108 108 105 100 99 69 37 44 33 22 1
117 119 57 107 358 0 300 310 323 348 37 79 118 250 277 80 92 26 55 65 44 112 138 185 346 330 189 155 146 147 141 141 139 135 144 148 72 71 63 59 42 49 38
139 152 147 208 255 302 254 273 256 196 27 25 113 88 9 328 77 29 331 64 70 11 98 184 177 176 244 284 170 161 161 158 162 184 196 133 121 105 83 66 63 48 44
191 258 175 209 210 185 223 153 216 108 133 345 42 139 92 239 318 337 330 335 74 230 205 226 181 174 170 187 234 178 186 182 199 115 131 138 129 103 89 77 67 53 46
239 214 188 196 187 168 196 167 192 124 125 180 26 11 42 140 153 330 303 316 143 214 227 216 270 201 166 171 220 200 189 200 176 162 159 158 144 124 111 100 76 57 53
215 231 209 185 184 199 185 196 182 170 176 135 165 163 118 28 61 106 286 317 306 181 251 266 240 202 187 163 197 211 184 196 190 172 171 167 164 155 145 120 97 76 41
204 205 205 198 189 194 199 185 208 191 200 164 151 158 161 158 161 177 247 288 257 299 244 248 294 277 190 166 191 207 192 189 192 182 168 170 175 175 158 131 117 83 53
205 214 201 204 200 207 203 192 192 194 199 193 170 214 173 191 131 176 187 259 255 292 320 299 236 225 192 165 173 199 205 187 185 187 181 173 167 161 152 133 107 86 66
209 191 193 202 206 205 209 201 204 209 201 217 212 206 203 216 177 194 185 195 290 305 346 244 227 257 192 172 178 180 215 202 188 182 191 181 169 159 155 147 124 98 78
203 209 200 195 209 206 203 201 220 223 202 202 218 226 196 194 214 209 218 178 153 217 275 294 263 167 209 169 178 181 199 204 200 186 188 188 178 171 161 154 138 120 100
218 209 215 201 199 201 207 202 228 247 217 234 205 181 172 184 192 186 190 203 180 169 213 218 257 206 210 188 188 183 190 195 206 204 190 194 187 174 162 157 149 133 120
203 209 196 183 188 199 206 206 215 218 216 228 209 208 217 204 229 210 188 163 177 166 181 300 289 324 214 219 192 166 179 173 202 215 196 194 192 181 166 158 150 142 133
185 201 179 180 183 192 186 194 215 199 209 232 245 226 249 230 237 205 199 160 161 205 156 219 250 224 218 213 185 169 177 187 203 196 192 192 191 189 173 162 150 136 129
199 192 188 182 183 206 199 218 211 222 214 214 228 216 234 235 241 237 204 201 191 201 192 162 259 272 284 226 127 181 189 203 199 192 191 182 178 182 182 160 152 149 143
194 204 200 198 195 194 201 205 210 228 234 212 227 229 229 211 221 221 223 223 215 212 203 187 219 240 223 241 185 166 188 144 157 174 182 173 166 169 159 158 152 148 140
212 204 208 217 222 206 205 200 206 211 227 231 234 237 236 231 222 209 197 230 209 213 211 213 231 225 233 230 210 210 201 152 149 162 149 127 132 156 173 168 166 155 149
88 1 259 207 217 221 218 204 195 206 215 215 232 240 246 246 239 237 228 230 201 204 224 201 222 225 249 221 208 209 179 172 203 175 132 165 161 184 170 171 167 161 155
338 237 276 257 218 218 214 211 212 209 210 220 229 226 234 232 228 240 252 262 237 230 223 195 227 214 235 219 314 272 220 204 216 140 123 147 181 177 169 167 161 157 145
248 271 280 262 248 223 220 198 191 201 207 219 220 219 216 224 230 220 237 262 285 31 335 238 217 129 75 268 236 189 176 110 79 98 112 138 93 63 88 145 162 155 135
202 219 240 243 215 134 135 127 160 177 226 234 231 225 216 212 195 197 200 223 168 95 55 94 100 104 88 58 10 248 217 207 207 134 44 100 105 97 36 83 111 144 154
35 269 125 82 97 128 251 274 248 158 215 240 223 124 55 145 128 180 193 201 197 181 146 129 111 84 64 49 40 46 80 200 174 135 123 101 142 138 149 173 148 161 172